sat.trackr.live / text

‹ back to catalog

KUIPER-00438

NORAD 68940 · 2026-098X

PAYLOAD ACTIVE UNKNOWN

§ Identity

Operator
Country
US
Launch date
2026-04-30
Launch site
FRGUI
Launch vehicle
Mass (kg)
RCS (m²)

External: N2YO · Heavens-Above · Gunter

§ Orbital elements

Epoch: 2026-09-19T19:11:01.863168Z

Period
97.30 min
Inclination
51.9041°
Eccentricity
0.0000497
Mean motion
14.79924492 rev/d
Perigee alt
629.2 km
Apogee alt
629.9 km
Semi-major
7,007.7 km
B*
6.4183e-6
RAAN
357.3107°
Arg perigee
87.9580°
Mean anomaly
272.1439°
Rev number
2,152

§ Raw data

KUIPER-004381 68940U 26098X   26262.79932712 -.00000172  00000+0  64183-5 0  99972 68940  51.9041 357.3107 0000497  87.9580 272.1439 14.79924492 21521

JSON: /api/v1/satellites/68940 · /tle

For live sub-satellite position, see the globe view (requires WebGL).

§ Visibility from observer

Set your observer location to see the next 7 days of passes ≥ 10°. The values pass through the URL so the page stays shareable.

No JS? Fill the form by hand. The geolocation button needs JavaScript.